Wetbulb
48.35 42.84 40.98 45.61 46.63 48.37 46.75 45.69 45.42 49.17 52.01 50.78 50.60 51.25 52.52 53.67 53.46 52.47 52.84 53.21 54.60 55.19 56.30 58.16 59.23 59.17 57.88 58.20 59.13 59.72 59.51 59.20 59.67 60.69 59.93 60.19 59.52 60.84 62.02 62.59 62.20 60.98 60.95 61.55
43.11 40.22 45.03 49.47 49.23 47.50 48.13 45.37 44.81 48.47 51.56 51.60 50.51 49.90 51.74 53.45 52.48 52.55 52.97 52.77 52.40 54.57 55.66 57.41 57.97 57.47 57.04 56.73 57.97 60.06 59.16 59.63 60.72 61.20 61.45 61.33 61.83 61.83 61.55 61.82 62.75 62.32 62.18 61.49
40.75 43.53 47.35 48.37 48.03 46.68 47.02 45.90 45.58 45.59 49.76 50.96 48.53 45.57 48.42 52.79 53.02 53.91 54.16 53.47 54.59 54.69 54.77 56.32 57.66 56.29 56.36 56.76 57.79 59.16 59.16 60.39 61.57 61.65 61.82 61.09 61.04 61.20 60.42 60.69 61.92 60.97 63.05 62.28
42.22 45.84 46.13 45.53 46.10 47.64 43.49 49.95 48.98 47.84 46.59 40.91 48.59 37.52 45.05 48.85 49.91 51.88 53.02 52.25 53.98 54.86 55.94 56.55 57.26 56.05 56.19 56.91 57.81 59.63 60.21 60.81 62.39 61.55 60.67 59.33 58.52 57.95 59.77 60.86 61.72 61.12 63.00 62.00
42.11 43.14 43.69 43.53 45.59 48.32 45.86 51.00 49.03 48.58 46.23 43.87 43.98 38.81 42.57 48.13 47.97 50.05 50.28 51.90 54.18 55.21 55.60 56.10 56.90 57.52 57.77 57.51 58.35 58.91 60.17 61.02 61.39 61.61 60.78 60.01 59.19 59.83 60.14 59.09 58.91 59.05 60.06 61.94
45.21 48.61 46.41 45.22 47.52 49.30 50.98 49.06 48.42 48.08 46.25 36.84 42.66 41.32 42.16 44.91 48.43 48.52 50.61 53.59 55.13 54.96 55.50 56.81 58.15 58.23 57.33 57.54 58.11 59.73 59.73 60.44 61.22 60.91 60.92 59.83 59.62 59.87 58.94 58.04 58.71 58.91 61.08 61.81
44.53 44.50 47.36 48.27 45.26 47.77 49.55 44.69 37.85 33.66 34.83 33.34 44.39 41.47 42.73 48.43 51.25 50.07 51.78 53.94 54.31 55.65 55.73 56.44 56.82 56.33 55.46 56.36 57.76 58.75 59.04 58.62 59.51 60.32 60.36 60.70 59.83 59.46 59.06 57.88 58.43 58.49 59.54 60.13
38.23 37.31 44.93 47.93 45.58 44.79 45.16 45.10 38.37 31.01 32.48 36.54 44.96 39.61 44.45 51.34 52.92 52.25 54.87 54.84 55.13 54.76 55.85 55.86 56.47 55.67 54.96 56.23 57.76 58.22 58.21 57.95 58.71 60.05 59.83 60.58 60.36 60.14 59.04 59.11 59.65 59.15 59.65 60.59
38.34 39.24 47.73 48.34 48.48 47.62 45.28 43.24 46.68 40.22 40.84 36.64 40.76 45.80 49.29 50.37 49.99 50.92 54.26 54.56 53.19 54.30 54.96 55.65 56.27 55.09 54.97 55.72 56.48 57.40 58.15 57.29 58.80 59.69 59.26 60.17 60.68 60.68 60.64 60.08 60.42 60.13 60.92 62.60
42.84 38.19 46.30 47.52 48.36 48.30 46.88 49.15 41.91 38.61 32.65 29.95 38.74 41.30 42.70 47.40 47.79 51.81 53.44 53.03 53.44 54.04 54.83 55.57 56.15 54.97 55.26 55.75 56.05 57.82 58.20 57.45 58.25 59.20 59.39 59.40 60.96 61.30 61.35 60.99 60.41 60.52 61.06 60.11
45.13 41.90 43.63 46.60 44.31 43.21 44.42 44.73 43.51 41.89 39.14 33.17 32.42 37.58 47.70 47.22 50.40 51.95 53.17 54.45 53.89 54.05 54.61 55.31 55.27 55.40 55.63 56.01 56.57 57.71 57.11 57.27 56.86 57.82 57.48 58.81 59.39 60.75 61.69 60.54 61.78 60.06 61.42 61.49
45.51 41.95 39.36 43.64 48.01 48.87 47.70 45.26 43.78 40.38 37.12 39.63 38.36 39.93 50.74 50.92 53.25 53.69 54.43 55.33 53.94 53.78 54.29 55.08 55.48 54.28 55.33 55.36 56.07 57.23 57.00 56.97 56.69 57.68 57.31 58.36 59.80 60.78 61.19 60.79 61.25 61.37 60.34 61.46
45.77 41.74 35.63 39.62 43.88 47.29 45.90 47.59 46.63 44.11 42.60 39.48 37.33 38.99 50.85 52.20 52.23 55.53 54.24 54.94 55.14 54.19 53.95 54.28 55.68 54.01 54.73 54.83 56.28 57.22 57.84 56.06 56.88 57.78 56.28 58.11 59.25 59.17 59.83 60.38 59.99 61.35 60.66 60.70
50.35 41.99 40.02 37.27 41.52 45.55 44.24 47.00 47.30 44.34 39.13 40.80 42.91 43.40 48.55 50.25 50.82 52.89 54.62 54.62 54.51 54.70 55.04 54.63 55.26 52.90 54.63 54.59 57.16 57.53 57.54 55.90 55.92 57.02 55.60 57.40 58.03 58.54 58.82 59.73 60.88 61.42 61.66 61.11
45.46 40.57 43.47 44.52 46.49 47.03 47.20 47.28 47.28 44.94 45.25 42.69 44.08 44.82 47.64 49.83 50.48 53.12 54.80 54.46 54.49 53.85 54.53 55.00 54.74 52.99 53.76 53.63 55.70 57.52 57.65 55.56 55.48 56.99 55.54 56.80 57.88 59.43 59.60 59.56 60.29 61.14 61.91 61.10
42.10 41.28 43.38 42.42 46.65 46.35 46.07 47.94 47.89 47.67 46.57 46.03 46.51 45.74 50.89 53.56 52.65 53.41 55.08 55.10 54.59 54.70 55.64 56.14 56.07 54.17 54.36 54.88 55.36 57.52 57.12 55.26 55.17 56.74 56.01 57.41 57.42 58.98 59.52 57.92 57.53 59.13 59.72 59.63
38.29 41.89 40.90 38.08 44.22 44.56 40.92 47.21 47.35 47.86 47.74 46.96 43.62 45.86 49.71 50.90 51.67 51.62 55.09 55.52 55.16 55.53 56.17 56.59 56.46 54.99 54.77 55.57 55.73 56.05 56.50 54.90 54.59 56.87 57.63 57.24 57.11 59.03 58.95 58.55 58.02 57.68 57.98 56.93
37.22 38.56 41.06 38.88 41.06 33.47 44.67 49.96 50.97 48.65 49.18 48.45 48.37 49.79 50.99 51.17 52.51 54.23 57.39 56.12 56.13 56.52 56.71 57.17 57.02 55.45 55.36 56.28 55.40 56.64 56.34 54.55 54.73 55.57 57.11 57.21 56.90 57.87 58.32 57.85 57.34 57.70 57.84 56.83
42.56 39.83 39.03 36.90 37.54 42.42 46.38 49.24 48.81 47.15 46.34 50.37 48.23 50.59 52.01 52.16 52.13 51.48 58.02 58.50 57.60 57.47 57.76 58.17 58.33 56.59 55.70 56.87 56.68 57.29 55.75 54.51 54.42 54.90 55.50 57.04 56.36 56.10 56.68 57.31 56.68 57.80 57.63 56.88
44.66 44.81 41.19 38.56 33.82 33.85 43.80 50.09 52.30 50.80 43.20 50.77 50.96 49.83 49.86 51.07 47.59 48.47 54.74 58.29 58.25 58.49 58.69 58.63 59.08 57.48 57.06 56.93 57.47 56.80 55.95 54.51 53.77 54.72 55.53 56.88 56.57 55.96 55.29 57.56 57.49 58.27 58.19 58.06
40.92 41.41 39.59 38.71 35.86 41.10 48.63 52.17 52.29 41.19 41.59 51.23 51.96 51.02 50.75 48.71 50.20 52.89 55.11 58.01 59.55 59.41 58.98 59.90 59.27 57.12 56.93 57.85 57.66 56.65 56.05 54.89 55.30 55.69 56.04 55.13 56.14 56.14 56.13 58.57 58.92 58.78 58.63 57.76
39.79 39.89 38.91 38.47 37.39 35.00 50.88 49.96 44.35 46.89 50.76 52.41 52.50 53.03 52.05 53.03 54.93 55.54 57.75 57.95 59.09 59.36 59.33 60.12 58.88 57.18 57.79 58.28 57.97 56.45 55.62 56.90 56.75 56.01 56.38 54.87 55.08 58.55 59.96 58.91 58.70 58.91 58.34 56.98
39.40 42.30 40.22 41.86 40.76 49.30 52.25 49.98 54.30 54.14 51.53 53.07 53.53 54.08 54.98 55.13 54.82 55.55 55.24 58.27 59.16 59.83 59.80 60.36 59.33 57.79 58.05 58.52 58.32 57.03 56.81 58.11 57.59 55.39 54.85 55.27 55.99 56.49 59.52 58.92 58.10 57.40 57.25 57.00
41.90 42.84 41.71 42.66 46.16 47.25 51.55 52.50 54.07 54.82 53.48 55.19 56.06 55.66 55.19 54.12 54.56 54.69 56.86 58.36 59.24 59.49 59.77 60.28 59.82 58.11 57.33 58.17 58.48 58.54 59.18 59.33 57.82 55.18 55.19 55.92 54.45 55.73 58.71 59.49 58.98 57.81 56.04 55.37
40.55 41.42 43.33 43.05 44.98 46.61 48.43 50.48 52.87 55.06 55.36 56.18 56.41 56.62 55.96 55.52 54.79 54.93 57.33 59.06 59.74 60.13 60.40 60.73 60.43 59.19 58.34 58.37 58.51 59.01 60.24 59.53 57.14 56.03 56.67 55.35 55.04 56.62 56.92 58.33 58.48 57.41 56.23 55.25
42.45 40.93 40.26 40.32 44.18 44.45 44.85 47.46 55.03 54.33 53.78 54.96 53.77 55.77 56.53 56.36 55.84 55.86 56.00 59.27 59.15 59.36 60.81 60.60 60.93 60.50 59.76 59.48 59.39 59.73 60.26 59.64 57.34 56.71 56.99 55.78 54.85 56.08 56.92 56.35 55.32 44.56 46.65 46.95
MSLP
1003.61 1003.94 1003.32 1003.67 1003.78 1004.02 1004.03 1003.58 1002.77 1001.37 1000.41 1000.74 1000.35 1000.21 999.83 999.49 999.78 1000.44 1000.60 1000.87 1001.08 1001.79 1002.95 1003.89 1004.80 1005.56 1006.25 1006.85 1007.67 1008.47 1008.97 1009.12 1009.36 1009.55 1009.62 1009.49 1009.34 1009.14 1009.05 1008.91 1008.65 1008.63 1008.66 1008.58
1003.83 1001.55 1002.72 1003.00 1003.21 1003.41 1003.13 1002.88 1002.19 1001.15 1000.38 1000.03 1000.22 999.98 999.67 999.15 999.41 999.37 999.72 1000.21 1000.82 1002.14 1003.44 1004.28 1005.04 1005.65 1006.28 1006.92 1007.52 1008.33 1008.81 1009.08 1009.17 1009.37 1009.33 1009.24 1009.08 1008.92 1008.82 1008.69 1008.48 1008.21 1008.20 1008.27
1001.55 1000.88 1002.11 1002.39 1002.23 1002.39 1002.09 1001.99 1001.64 1001.42 1000.24 999.62 999.93 999.63 999.29 998.84 998.65 998.80 998.87 999.14 1000.56 1001.72 1003.08 1004.03 1004.96 1005.64 1006.39 1006.92 1007.47 1008.15 1008.70 1008.85 1009.00 1009.08 1009.07 1009.09 1008.89 1008.89 1008.77 1008.71 1008.46 1008.23 1008.02 1007.94
1000.67 1001.06 1000.71 1001.00 1000.99 1001.33 1001.06 1000.77 1000.98 1000.84 1000.69 1000.58 999.71 1000.02 999.89 999.34 999.13 998.74 998.63 999.29 1000.39 1001.65 1002.81 1003.73 1004.66 1005.55 1006.17 1006.82 1007.32 1008.02 1008.45 1008.74 1008.90 1008.90 1009.14 1009.17 1009.34 1009.36 1008.93 1008.70 1008.54 1008.31 1008.08 1008.13
998.51 999.15 999.43 999.32 999.36 1000.00 999.68 999.86 1000.04 1000.22 1000.63 1000.83 1000.27 1000.69 999.72 999.41 999.25 998.85 998.51 999.04 1000.28 1001.23 1002.21 1003.47 1004.47 1005.30 1006.03 1006.62 1007.36 1007.95 1008.40 1008.62 1008.70 1008.75 1008.90 1009.15 1009.26 1009.15 1008.87 1008.75 1008.70 1008.46 1008.32 1008.23
998.11 998.22 998.36 998.28 998.62 998.72 998.75 999.39 999.62 1000.09 1000.62 1000.89 1000.67 1000.70 999.63 999.49 998.80 998.33 998.23 998.98 1000.21 1001.47 1002.64 1003.66 1004.50 1005.21 1006.01 1006.66 1007.32 1007.90 1008.38 1008.59 1008.50 1008.69 1008.93 1009.09 1009.26 1009.17 1009.07 1008.97 1008.82 1008.67 1008.41 1008.32
997.48 996.82 997.01 997.01 997.24 997.52 998.02 998.87 999.94 1000.55 1000.75 1000.76 1000.41 1000.45 999.45 998.35 998.00 997.90 998.63 999.50 1000.47 1001.49 1002.57 1003.66 1004.53 1005.39 1006.06 1006.85 1007.34 1007.82 1008.28 1008.52 1008.53 1008.71 1008.93 1009.10 1009.28 1009.29 1009.26 1009.15 1009.00 1008.78 1008.59 1008.47
996.51 996.08 995.30 994.92 995.16 995.83 996.73 997.83 998.95 1000.33 1000.88 1000.85 1000.29 999.77 998.30 997.26 997.01 997.56 998.32 999.38 1000.43 1001.59 1002.54 1003.50 1004.37 1005.24 1006.02 1006.73 1007.23 1007.60 1008.10 1008.42 1008.58 1008.74 1009.04 1009.04 1009.10 1009.17 1009.16 1009.15 1009.03 1008.80 1008.69 1008.56
995.28 994.46 993.68 993.91 994.20 994.95 995.49 996.23 997.39 999.39 1000.21 1000.79 1000.17 998.52 997.33 996.93 997.31 997.84 998.86 999.76 1000.88 1001.76 1002.70 1003.46 1004.31 1005.04 1005.84 1006.58 1007.09 1007.47 1007.94 1008.18 1008.56 1008.68 1008.80 1009.07 1009.06 1008.99 1009.07 1009.14 1009.00 1008.84 1008.74 1008.66
994.15 994.75 993.44 993.13 993.73 993.60 994.11 995.31 996.95 998.64 1000.43 1000.90 1000.09 998.90 997.99 997.55 997.61 998.10 999.21 1000.10 1001.09 1001.86 1002.70 1003.38 1004.15 1004.93 1005.65 1006.30 1006.74 1007.26 1007.62 1008.07 1008.38 1008.54 1008.67 1008.80 1008.95 1008.91 1009.02 1009.20 1009.24 1009.16 1009.08 1008.97
994.95 994.45 993.12 993.23 992.34 992.75 993.48 994.60 995.93 997.78 999.37 1000.20 1000.26 998.88 996.60 996.56 997.16 997.98 999.02 999.86 1000.74 1001.67 1002.48 1003.26 1004.03 1004.70 1005.43 1006.06 1006.56 1007.15 1007.54 1007.97 1008.31 1008.52 1008.60 1008.78 1008.93 1008.98 1009.19 1009.35 1009.46 1009.45 1009.41 1009.21
993.43 994.01 993.78 992.33 991.69 991.83 992.78 993.82 995.28 997.14 998.76 999.33 999.47 998.40 996.31 996.69 996.97 997.66 998.82 999.70 1000.49 1001.46 1002.20 1003.03 1003.77 1004.57 1005.36 1006.00 1006.59 1007.04 1007.45 1007.90 1008.14 1008.42 1008.66 1008.92 1009.04 1009.18 1009.47 1009.68 1009.72 1009.54 1009.52 1009.57
993.24 993.84 994.00 992.51 991.97 991.44 991.90 992.52 994.11 995.74 997.39 998.39 998.60 997.80 996.38 996.09 996.61 997.22 998.42 999.29 1000.12 1001.09 1001.95 1002.75 1003.59 1004.48 1005.12 1005.70 1006.31 1006.80 1007.27 1007.68 1007.95 1008.37 1008.68 1009.06 1009.34 1009.52 1009.70 1009.94 1009.94 1009.90 1009.88 1009.89
992.52 992.61 992.76 991.99 990.78 990.65 991.25 992.02 993.28 994.90 996.12 997.05 996.98 996.79 996.57 996.26 996.62 997.42 998.10 998.78 999.79 1000.51 1001.52 1002.42 1003.22 1004.04 1004.70 1005.25 1005.94 1006.53 1006.97 1007.37 1007.81 1008.28 1008.67 1009.17 1009.48 1009.59 1009.63 1009.74 1010.06 1010.06 1010.13 1010.12
993.48 992.45 992.23 991.96 991.20 990.59 990.29 991.02 992.06 993.06 994.66 995.30 995.74 995.80 995.56 995.61 995.93 996.57 997.17 998.30 999.34 1000.11 1001.01 1001.92 1002.80 1003.54 1004.28 1004.88 1005.46 1006.01 1006.53 1007.11 1007.63 1008.22 1008.65 1009.15 1009.49 1009.50 1009.63 1009.76 1010.00 1010.09 1010.33 1010.45
995.25 992.90 992.21 991.74 990.78 990.49 990.34 989.83 990.72 991.76 993.01 993.81 994.39 994.63 994.71 994.66 994.82 995.64 996.48 997.52 998.49 999.27 1000.10 1001.05 1002.03 1002.85 1003.67 1004.33 1004.94 1005.62 1006.17 1006.84 1007.40 1008.13 1008.62 1009.01 1009.40 1009.53 1009.81 1009.85 1010.09 1010.35 1010.54 1010.82
997.39 994.37 992.78 991.86 991.16 990.69 990.18 989.50 989.60 990.56 991.63 992.38 993.10 993.53 993.66 994.29 994.38 994.84 995.61 996.47 997.38 998.21 999.09 1000.08 1001.08 1001.98 1002.89 1003.64 1004.33 1005.17 1005.82 1006.41 1007.20 1007.97 1008.51 1008.89 1009.36 1009.72 1009.92 1009.98 1010.27 1010.77 1011.11 1011.24
997.11 995.94 993.61 992.13 991.79 990.42 989.23 988.97 989.07 990.09 990.78 991.59 992.22 992.67 993.11 993.35 993.58 993.80 994.24 995.36 996.39 997.12 998.04 999.15 1000.26 1001.25 1002.14 1002.96 1003.80 1004.52 1005.35 1006.10 1006.85 1007.78 1008.29 1008.71 1009.26 1009.67 1010.06 1010.35 1010.68 1011.10 1011.39 1011.79
996.31 996.41 994.27 992.00 991.16 989.99 988.82 987.99 988.28 989.50 990.18 990.49 991.57 991.96 992.40 992.64 993.16 993.70 993.58 994.11 995.04 995.82 996.82 997.81 999.06 1000.26 1001.31 1002.35 1003.22 1004.13 1005.11 1005.76 1006.48 1007.35 1007.93 1008.42 1008.99 1009.58 1010.09 1010.58 1010.90 1011.23 1011.69 1012.08
994.40 994.68 994.39 992.08 991.14 988.98 988.37 987.79 987.74 988.78 989.67 989.92 990.61 991.35 991.86 992.43 993.16 993.24 993.41 993.61 994.43 995.19 996.13 997.44 998.48 999.58 1000.54 1001.66 1002.62 1003.69 1004.69 1005.43 1006.12 1006.70 1007.39 1007.98 1008.57 1009.30 1009.95 1010.56 1010.96 1011.22 1011.53 1012.05
994.05 993.85 993.75 992.49 990.98 989.44 988.09 987.79 987.69 988.54 989.39 989.32 989.66 990.56 991.31 992.04 992.23 992.39 992.40 993.11 993.57 994.40 995.53 996.76 997.92 999.04 1000.04 1000.99 1001.98 1003.14 1004.04 1004.76 1005.28 1005.93 1006.78 1007.49 1008.08 1008.89 1009.60 1010.37 1010.79 1011.30 1011.73 1012.05
995.29 993.84 993.22 992.51 990.94 989.51 987.83 988.22 988.13 988.79 988.43 988.44 989.05 989.69 990.49 991.03 991.46 992.03 992.06 992.77 993.30 994.20 995.29 996.28 997.61 998.73 999.76 1000.46 1001.35 1002.43 1003.40 1004.03 1004.66 1005.30 1006.10 1006.96 1007.62 1008.25 1009.19 1009.95 1010.71 1011.17 1011.76 1012.15
996.97 996.61 994.92 994.22 991.05 989.03 988.78 989.18 988.70 987.93 988.10 988.15 988.78 989.07 989.55 990.49 991.02 991.55 991.93 992.60 992.85 993.66 994.75 995.80 996.99 998.35 999.37 1000.02 1000.67 1001.78 1002.62 1003.43 1004.20 1004.85 1005.56 1006.38 1007.24 1007.90 1008.79 1009.59 1010.32 1010.97 1011.49 1012.04
998.37 997.39 995.94 995.28 993.30 992.18 991.00 990.86 990.40 989.08 987.70 987.68 987.94 988.66 989.13 989.88 990.38 991.07 991.54 992.15 992.62 993.36 994.38 995.46 996.76 997.98 998.99 999.77 1000.25 1000.98 1001.97 1002.72 1003.58 1004.45 1005.28 1005.96 1006.83 1007.67 1008.44 1009.04 1009.77 1010.47 1011.06 1011.65
1000.34 999.62 997.48 996.41 995.29 993.19 992.46 993.11 992.33 990.94 989.67 988.54 988.00 988.35 988.79 989.28 989.86 990.54 991.27 991.53 992.18 992.98 993.92 994.98 996.07 997.27 998.28 999.23 1000.00 1000.62 1001.36 1002.13 1003.01 1003.87 1004.82 1005.54 1006.32 1007.12 1007.99 1008.54 1009.18 1009.90 1010.41 1010.81
1001.33 1000.16 998.81 998.44 997.90 997.45 996.68 994.96 993.79 991.82 991.16 991.05 990.96 989.30 988.39 988.63 989.37 989.83 990.71 991.05 991.61 992.40 993.27 994.47 995.50 996.53 997.62 998.54 999.37 1000.09 1000.78 1001.53 1002.45 1003.52 1004.29 1004.99 1005.82 1006.67 1007.36 1008.19 1009.13 1009.72 1009.83 1010.24
Wind_Speed
9 10 18 22 22 16 14 14 20 22 19 17 6 21 9 10 6 7 10 9 8 10 10 15 13 12 10 9 9 6 4 2 1 1 2 1 1 2 1 2 3 6 5 6
14 27 21 19 16 20 17 19 22 23 19 4 15 20 13 8 7 9 10 10 4 12 13 13 13 8 9 9 9 6 4 3 1 1 1 1 2 3 2 2 2 2 5 6
25 14 19 19 18 19 21 20 21 19 21 16 5 5 5 5 5 7 12 8 16 21 18 14 14 11 9 9 8 7 5 4 2 2 1 3 3 3 3 1 1 3 2 3
23 20 19 24 24 21 21 18 21 21 16 9 1 6 4 6 10 10 12 10 16 18 15 14 13 10 9 8 8 7 6 4 3 3 3 3 1 2 2 1 2 3 4 2
19 24 24 23 23 24 22 15 19 21 15 7 5 2 6 4 8 14 4 11 14 17 19 16 13 11 9 8 8 7 7 5 5 3 3 3 3 2 2 2 3 2 2 2
20 15 22 28 24 24 24 17 16 16 11 4 6 7 9 6 9 5 3 10 16 14 13 13 12 11 8 8 8 7 7 4 2 4 6 6 5 5 4 4 3 2 2 2
22 25 22 24 22 23 20 14 9 4 3 7 5 4 10 10 7 7 10 13 12 15 16 15 14 10 9 9 8 7 8 5 2 6 6 6 4 5 4 3 3 4 2 1
17 14 28 24 26 21 19 15 8 7 5 5 6 8 13 14 10 9 14 14 13 14 14 13 14 10 10 9 9 8 8 6 4 6 5 5 4 2 2 1 2 2 2 2
19 18 12 26 18 23 16 13 13 5 1 2 5 7 6 7 8 10 14 13 12 13 13 14 13 11 9 9 9 8 8 6 7 7 4 5 4 3 3 1 3 2 2 2
6 5 21 21 18 19 22 7 7 1 8 6 5 6 7 7 10 10 11 11 10 10 12 12 12 10 8 9 7 7 8 8 7 7 5 4 5 3 3 3 4 4 3 3
16 4 8 19 22 23 12 11 4 8 7 6 2 8 8 12 9 14 12 13 14 13 12 12 10 9 10 8 8 7 7 8 7 6 5 5 4 5 6 5 4 5 4 3
31 7 10 16 18 23 14 11 8 9 6 5 6 7 9 8 12 13 13 13 10 11 11 11 11 10 11 9 8 8 6 8 7 6 5 5 6 6 5 6 4 4 6 6
23 19 4 5 8 12 18 14 10 7 7 9 6 7 6 10 9 16 15 14 14 12 11 10 12 11 11 8 8 8 7 7 7 7 7 6 6 5 5 6 5 4 5 6
22 13 23 10 9 11 24 18 16 10 6 7 8 7 4 7 10 10 14 15 14 14 13 10 12 9 12 9 10 8 7 8 7 8 7 7 6 4 3 5 6 5 5 5
6 22 13 23 21 12 22 21 20 18 10 15 8 6 11 11 10 15 18 16 14 14 13 13 13 10 11 9 9 9 7 8 8 9 7 7 6 5 3 4 6 6 6 5
12 15 22 17 20 20 13 27 22 20 12 7 13 12 11 11 10 10 19 19 18 16 16 15 14 14 13 11 9 10 8 8 9 10 8 7 6 3 5 5 6 6 5 6
9 6 13 22 18 11 15 18 23 19 10 14 14 6 4 5 9 10 19 21 20 17 17 17 16 15 12 12 10 9 8 8 9 10 9 7 6 6 6 5 5 6 6 7
13 10 5 11 13 19 10 12 17 19 17 10 8 14 9 8 7 11 18 18 20 19 19 17 14 14 12 12 9 9 11 10 9 11 10 9 7 7 6 5 6 6 6 7
17 8 6 9 14 2 10 13 24 15 15 15 10 12 14 11 6 2 17 17 20 20 18 18 16 15 11 15 11 12 12 11 9 9 10 11 8 7 7 7 7 4 6 5
15 14 5 1 10 20 8 7 8 8 12 12 12 11 9 9 9 6 9 14 14 16 16 16 16 15 17 15 13 13 12 11 10 8 12 12 10 9 8 8 7 4 4 5
8 6 11 6 5 5 10 8 3 10 10 9 13 10 9 8 8 9 8 14 17 17 18 18 18 18 16 16 15 14 12 13 11 9 12 11 10 11 9 9 5 5 4 5
5 2 4 4 5 5 5 5 7 7 5 10 10 11 10 9 9 8 9 13 16 16 16 20 17 15 14 16 16 14 12 11 10 9 11 12 10 11 9 11 6 7 6 5
6 4 3 6 6 5 7 1 10 10 9 8 9 8 13 11 9 9 7 12 16 17 18 18 17 16 14 16 16 15 12 12 11 8 10 13 12 10 11 11 8 6 6 5
11 14 4 10 17 18 16 23 24 14 7 7 8 9 12 11 11 9 8 13 13 13 17 16 17 17 15 13 15 15 13 12 11 8 10 13 12 10 11 9 9 8 6 5
2 15 8 6 16 20 18 23 22 20 19 5 7 11 13 13 11 9 8 15 15 14 14 18 18 17 17 14 13 13 14 12 11 8 11 13 11 11 10 10 9 7 6 7
8 5 6 5 14 5 16 22 19 18 18 14 18 8 10 13 12 10 10 12 12 12 15 17 18 17 16 16 14 14 14 13 10 9 11 11 10 8 10 8 5 6 1 14
Wind_Direction
221 219 225 219 225 240 233 241 249 255 253 246 338 269 257 219 204 225 244 246 233 155 137 133 132 131 125 122 126 152 168 213 119 347 315 317 254 273 235 240 246 218 225 241
221 232 218 233 225 230 242 243 258 272 277 173 219 253 247 202 213 218 234 246 227 123 131 131 131 125 131 135 142 156 173 153 67 158 257 212 267 268 225 238 296 280 235 225
220 220 219 229 229 239 235 235 248 258 279 285 263 306 304 260 246 273 252 220 140 146 147 148 143 141 140 142 145 160 164 140 131 33 23 340 352 334 353 336 327 299 285 181
231 224 219 213 230 223 238 228 235 251 261 261 273 285 294 308 300 297 282 137 143 150 149 148 147 144 143 145 148 144 145 165 135 83 65 79 63 305 279 283 12 357 10 201
212 207 215 225 213 225 238 226 229 239 248 244 277 296 250 252 293 283 196 147 156 154 152 155 144 140 146 139 146 146 144 154 162 121 103 75 23 304 335 16 61 6 344 334
223 222 209 225 234 218 230 236 239 239 236 236 217 181 264 233 234 187 138 125 147 137 135 130 139 138 138 137 139 142 151 178 150 125 78 75 45 29 39 22 25 1 351 310
217 224 223 225 223 228 218 218 237 299 243 211 216 286 252 260 231 171 139 126 135 136 139 140 144 142 135 145 150 154 153 165 168 111 90 104 82 66 61 6 360 9 356 80
212 217 213 211 221 220 222 198 195 209 183 246 242 239 258 227 213 129 139 139 130 133 142 143 142 141 145 150 155 166 160 160 143 116 113 126 98 148 115 355 357 30 39 118
193 228 197 219 217 211 232 205 190 169 276 204 229 230 340 118 129 119 130 126 135 140 143 144 145 143 148 149 167 164 157 160 139 128 129 144 145 153 151 125 22 54 74 62
261 191 229 208 215 237 209 184 149 64 196 250 294 296 227 155 175 124 126 136 134 137 139 144 144 144 152 153 164 147 144 150 156 154 156 149 174 153 108 83 72 65 84 59
232 217 242 211 206 213 222 209 142 133 148 169 233 273 231 168 149 142 143 148 147 150 144 146 144 145 149 148 148 144 144 139 138 121 132 111 101 98 90 85 76 69 80 86
210 201 234 230 212 207 213 178 154 174 220 200 179 261 149 136 143 140 145 147 139 142 142 147 142 141 147 152 152 154 158 145 152 148 127 117 102 95 96 92 93 67 63 64
197 226 297 242 276 208 200 182 176 134 132 204 176 249 224 150 128 142 143 146 150 148 146 148 145 148 156 154 156 164 164 162 158 132 130 110 108 100 121 109 123 104 81 80
192 192 212 219 203 192 193 179 188 153 167 181 216 223 165 142 139 144 152 154 157 156 156 154 152 153 159 159 160 167 178 162 150 136 130 121 129 140 148 128 138 123 112 105
290 201 191 224 247 255 192 183 184 200 177 190 193 181 169 172 179 160 160 155 153 156 155 158 159 160 158 163 159 166 172 154 142 136 134 138 148 178 149 121 129 124 126 114
321 221 199 222 224 239 251 185 191 203 185 178 181 233 179 199 180 145 160 160 166 166 164 163 162 162 160 167 163 164 163 154 135 138 144 141 148 141 125 123 111 127 115 88
283 331 183 214 221 236 234 211 199 201 194 181 203 182 226 169 188 163 165 166 169 170 167 165 164 167 163 165 159 162 153 145 132 142 149 146 162 139 129 126 109 106 120 100
258 312 280 197 196 228 239 212 191 201 198 208 170 183 201 210 213 170 165 161 172 172 168 166 163 163 160 160 153 148 146 146 142 149 154 154 157 147 145 128 112 99 112 118
217 233 279 181 192 117 255 181 194 195 208 194 183 190 196 207 160 184 163 167 170 172 170 168 161 158 152 160 155 145 151 149 152 151 158 162 155 156 152 139 137 120 116 117
200 207 219 356 166 211 190 234 168 150 195 186 171 188 170 167 197 227 181 164 162 161 159 157 159 158 154 161 151 149 156 157 164 164 165 166 155 160 154 150 148 141 132 135
193 213 201 228 143 254 182 235 154 189 227 193 177 176 172 169 175 208 176 167 162 161 155 152 155 161 163 159 152 160 157 170 172 167 160 165 153 160 154 150 143 143 154 137
312 289 194 156 111 211 185 296 226 210 200 168 164 167 165 161 171 186 159 164 154 154 146 155 155 159 162 160 159 162 164 170 168 166 155 162 156 164 153 151 150 152 155 168
31 352 235 9 200 272 104 190 274 187 169 156 159 169 159 157 172 169 146 163 156 155 155 158 156 156 163 166 166 165 175 162 170 167 154 158 160 150 152 155 156 154 161 166
348 7 5 348 13 341 358 11 355 339 140 153 153 165 158 160 161 165 158 157 155 149 152 157 151 161 167 170 170 170 164 163 167 168 155 156 157 148 157 162 166 168 170 173
29 304 341 281 357 347 8 347 336 340 357 29 165 171 173 158 168 158 156 150 152 151 150 157 160 165 171 166 167 164 169 166 168 156 157 161 161 157 160 167 172 172 189 175
172 276 8 313 339 333 314 328 333 349 12 2 10 337 163 161 164 161 161 161 155 147 153 158 164 164 169 171 168 170 175 172 164 158 160 166 162 160 166 161 156 41 185 191